DAL241 LIBN-LIRF

Flight info

Callsign DAL241
Flight time N/A
Altitude 36000
Route KAPO5C KAPPO L995 TEA Z803 LAT LAT3A
Aircraft B712/L-DGVW/L

Departure

Time 2026-05-05 19:55
Airport Lecce Galatina Air Base / Galatina Fortunato Cesari Airport (LIBN)

Arrival

Time N/A
Airport Rome–Fiumicino Leonardo da Vinci International Airport (LIRF)
Time Latitude Longitude Altitude Speed Heading
2026-05-05 19:36 40.23939 18.13919 167 ft 0 kts 291°
2026-05-05 19:49 40.23939 18.13918 167 ft 0 kts 291°
2026-05-05 19:51 40.23958 18.13903 167 ft 10 kts 345°
2026-05-05 19:51 40.24038 18.13871 167 ft 13 kts 327°
2026-05-05 19:51 40.24132 18.13765 167 ft 23 kts 319°
2026-05-05 19:51 40.24275 18.13599 167 ft 29 kts 317°
2026-05-05 19:52 40.24421 18.13423 167 ft 28 kts 316°
2026-05-05 19:52 40.24561 18.13255 167 ft 27 kts 318°
2026-05-05 19:52 40.24641 18.13166 167 ft 12 kts 320°
2026-05-05 19:52 40.24647 18.13078 167 ft 14 kts 229°
2026-05-05 19:53 40.24583 18.12981 167 ft 17 kts 229°
2026-05-05 19:53 40.24528 18.12897 167 ft 0 kts 229°
2026-05-05 19:54 40.24510 18.12870 167 ft 5 kts 229°
2026-05-05 19:54 40.24491 18.12841 167 ft 3 kts 229°
2026-05-05 19:54 40.24471 18.12824 167 ft 7 kts 197°
2026-05-05 19:54 40.24433 18.12842 167 ft 0 kts 142°
2026-05-05 19:55 40.24349 18.12933 167 ft 49 kts 140°
2026-05-05 19:55 40.23880 18.13441 167 ft 123 kts 139°
2026-05-05 19:55 40.23129 18.14294 517 ft 148 kts 141°
2026-05-05 19:55 40.22333 18.15193 1272 ft 154 kts 140°
2026-05-05 19:56 40.21449 18.16013 2073 ft 153 kts 150°
2026-05-05 19:56 40.20525 18.16684 2735 ft 151 kts 153°
2026-05-05 19:56 40.19602 18.17331 3350 ft 153 kts 153°
2026-05-05 19:56 40.18608 18.18072 3625 ft 177 kts 151°
2026-05-05 19:57 40.17547 18.19081 3865 ft 203 kts 138°
2026-05-05 19:57 40.16719 18.20751 4098 ft 240 kts 109°
2026-05-05 19:57 40.16621 18.23038 4533 ft 269 kts 77°
2026-05-05 19:57 40.17484 18.25261 5391 ft 285 kts 50°
2026-05-05 19:58 40.19101 18.26732 6460 ft 288 kts 20°
2026-05-05 19:58 40.21080 18.26945 7485 ft 291 kts 346°
2026-05-05 19:58 40.22809 18.25660 8516 ft 290 kts 310°
2026-05-05 19:58 40.24017 18.23632 9818 ft 281 kts 306°
2026-05-05 19:59 40.25279 18.21630 10641 ft 295 kts 311°
2026-05-05 19:59 40.26841 18.19705 10948 ft 324 kts 319°
2026-05-05 19:59 40.28661 18.17762 11222 ft 350 kts 320°
2026-05-05 19:59 40.30621 18.15718 11917 ft 360 kts 321°
2026-05-05 20:00 40.32592 18.13708 12859 ft 360 kts 321°
2026-05-05 20:00 40.34556 18.11692 13890 ft 359 kts 321°
2026-05-05 20:00 40.36627 18.09761 14412 ft 374 kts 327°
2026-05-05 20:00 40.39005 18.08238 14881 ft 386 kts 337°
2026-05-05 20:01 40.41562 18.07146 15692 ft 388 kts 341°
2026-05-05 20:01 40.44180 18.06215 16310 ft 394 kts 342°
2026-05-05 20:01 40.46849 18.05295 16880 ft 399 kts 342°
2026-05-05 20:01 40.49545 18.04359 17438 ft 403 kts 342°
2026-05-05 20:02 40.52259 18.03406 17985 ft 406 kts 342°
2026-05-05 20:02 40.55005 18.02323 18540 ft 407 kts 336°
2026-05-05 20:02 40.57522 18.00753 19051 ft 406 kts 324°
2026-05-05 20:02 40.59740 17.98415 19577 ft 405 kts 311°
2026-05-05 20:03 40.61415 17.95514 19912 ft 406 kts 298°
2026-05-05 20:03 40.62570 17.92042 20049 ft 415 kts 287°
2026-05-05 20:03 40.63347 17.88372 20082 ft 417 kts 283°
2026-05-05 20:03 40.64024 17.84661 20086 ft 418 kts 283°
2026-05-05 20:04 40.64701 17.80947 20087 ft 419 kts 283°
2026-05-05 20:04 40.65389 17.77223 20087 ft 418 kts 283°
2026-05-05 20:04 40.66079 17.73504 20088 ft 419 kts 283°
2026-05-05 20:04 40.66768 17.69791 20088 ft 419 kts 283°
2026-05-05 20:05 40.67455 17.66079 20088 ft 419 kts 283°
2026-05-05 20:05 40.68142 17.62355 20088 ft 418 kts 283°
2026-05-05 20:05 40.68829 17.58632 20088 ft 419 kts 283°
2026-05-05 20:05 40.69521 17.54866 20089 ft 418 kts 283°
2026-05-05 20:06 40.70205 17.51142 20089 ft 418 kts 283°
2026-05-05 20:06 40.70880 17.47468 20089 ft 419 kts 283°
2026-05-05 20:06 40.71576 17.43697 20089 ft 418 kts 283°
2026-05-05 20:06 40.72265 17.39977 20088 ft 418 kts 283°
2026-05-05 20:07 40.72953 17.36255 20089 ft 418 kts 283°
2026-05-05 20:07 40.73640 17.32531 20090 ft 420 kts 283°
2026-05-05 20:07 40.74328 17.28800 20090 ft 420 kts 283°
2026-05-05 20:07 40.75013 17.25069 20090 ft 420 kts 283°
2026-05-05 20:08 40.75699 17.21329 20090 ft 420 kts 283°
2026-05-05 20:08 40.76381 17.17604 20090 ft 420 kts 283°
2026-05-05 20:08 40.77065 17.13863 20090 ft 420 kts 283°
2026-05-05 20:08 40.77746 17.10127 20087 ft 420 kts 283°
2026-05-05 20:09 40.78435 17.06342 20086 ft 420 kts 283°
2026-05-05 20:09 40.79114 17.02601 20087 ft 420 kts 283°
2026-05-05 20:09 40.79790 16.98870 20087 ft 420 kts 283°
2026-05-05 20:09 40.80469 16.95120 20088 ft 420 kts 283°